This demonstration page uses our WeatherBlox Daily Observations layout. Learn more.

Left ArrowRight Arrow

36.19886, -115.1175

Hourly Observations for May 22, 2020

Temp ( °F °C ) Dew Point ( °F °C ) Humidity (%) Winds ( mph kmh ) Pressure ( in mb ) Visibility ( mi km ) Precip ( " mm )
12:53 am 00:53 Clear 74 23.3 21 -6.1 14 14 SSE 6 9 29.78 1009 10 16 N/A
1:53 am 01:53 Clear 73 22.8 22 -5.6 15 15 SW 3 6 29.77 1008 10 16 N/A
2:53 am 02:53 Clear 69 20.6 26 -3.3 20 20 W 5 7 29.77 1008 10 16 N/A
3:53 am 03:53 Clear 66 18.9 25 -3.9 21 21 W 6 9 29.77 1008 10 16 N/A
4:53 am 04:53 Clear 66 18.9 26 -3.3 22 22 W 6 9 29.76 1008 10 16 N/A
5:53 am 05:53 Sunny 64 17.8 26 -3.3 24 24 NW 6 9 29.77 1008 10 16 N/A
6:53 am 06:53 Sunny 68 20 25 -3.9 20 20 N N/A 29.76 1008 10 16 N/A
7:53 am 07:53 Sunny 74 23.3 32 undefined 21 21 ESE 7 11 29.75 1007 10 16 N/A
8:53 am 08:53 Sunny 81 27.2 31 -0.6 16 16 SSW 20 31 29.73 1007 10 16 N/A
9:53 am 09:53 Sunny 84 28.9 29 -1.7 13 13 SSE 16 26 29.71 1006 10 16 N/A
10:53 am 10:53 Sunny 86 30 28 -2.2 12 12 SSW 30 48 29.72 1006 10 16 N/A
11:53 am 11:53 Sunny 87 30.6 22 -5.6 9 9 S 22 35 29.69 1006 10 16 N/A
12:53 pm 12:53 Sunny 89 31.7 20 -6.7 8 8 S 16 26 29.68 1005 10 16 N/A
1:53 pm 13:53 Sunny 89 31.7 21 -6.1 8 8 S 25 41 29.65 1004 10 16 N/A
2:53 pm 14:53 Sunny 91 32.8 23 -5 8 8 S 20 31 29.62 1003 10 16 N/A
3:53 pm 15:53 Sunny 89 31.7 24 -4.4 9 9 WSW 21 33 29.59 1002 10 16 N/A
4:53 pm 16:53 Sunny 88 31.1 22 -5.6 9 9 SSW 18 30 29.59 1002 10 16 N/A
5:53 pm 17:53 Sunny 87 30.6 25 -3.9 10 10 SSW 23 37 29.57 1001 10 16 N/A
6:53 pm 18:53 Sunny 87 30.6 27 -2.8 11 11 SW 21 33 29.58 1002 10 16 N/A
7:53 pm 19:53 Clear 84 28.9 20 -6.7 9 9 WSW 14 22 29.60 1003 10 16 N/A
8:53 pm 20:53 Clear 82 27.8 23 -5 11 11 SW 13 20 29.62 1003 10 16 N/A
9:53 pm 21:53 Clear 79 26.1 30 -1.1 17 17 SSW 17 28 29.63 1004 10 16 N/A
10:53 pm 22:53 Clear 78 25.6 30 -1.1 17 17 SW 20 31 29.63 1003 10 16 N/A
11:53 pm 23:53 Clear 77 25 29 -1.7 17 17 NW 13 20 29.68 1005 10 16 N/A

Powered by AerisWeather